Weather Roundup
Issued by NWS Chicago, IL

Home | Current Version | Previous Version | Graphics & Text | Print | Product List | Glossary Off
Versions: 1 2 3 4 5 6 7 8 9 10 11 12 13 14 15 16 17 18 19 20 21 22 23 24 25 26 27 28 29 30 31 32 33 34 35 36 37 38 39 40 41 42 43 44 45 46 47 48 49 50

000
NZUS59 KLOT 221708
HRRLOT

CHICAGO AREA WEATHER ROUNDUP
NATIONAL WEATHER SERVICE CHICAGO/ROMEOVILLE IL
1200 PM CDT TUE MAY 22 2018

NOTE: "FAIR" INDICATES FEW OR NO CLOUDS BELOW 12,000 FEET WITH NO
SIGNIFICANT WEATHER AND/OR OBSTRUCTIONS TO VISIBILITY.

* THESE STATIONS ARE NOT UNDER NWS QUALITY CONTROL. THEY ALSO MAY NOT
  REPORT WEATHER SUCH AS PRECIPITATION OR FOG.

ILZ005-006-012>014-019>023-221800-
NORTHEAST ILLINOIS

CITY           SKY/WX    TMP DP  RH WIND       PRES   REMARKS
OHARE          CLOUDY    66  58  75 W3        30.06R
MIDWAY         CLOUDY    66  60  81 NW7       30.06S FOG
AURORA         CLOUDY    67  60  78 NW9       30.07S
LANSING*       CLOUDY    63  60  91 CALM      30.08R FOG
JOLIET*        CLOUDY    70  62  77 NW6       30.07S
WAUKEGAN       CLOUDY    57  54  89 NE3       30.08R
DUPAGE AIRPORT CLOUDY    66  61  84 W7        30.06R
WHEELING       CLOUDY    61  55  81 NE10      30.09R
KANKAKEE*      PTSUNNY   71  61  72 NW9       30.07R
MORRIS*        CLOUDY    70  62  75 NW6       30.06S
LEWIS AIRPORT* CLOUDY    67  61  82 N8        30.07S
NORTHERLY ISL    N/A     52  49  89 NE8         N/A
$$

WIZ051-052-058>065-066-070>072-221800-
SOUTHEAST WISCONSIN

CITY           SKY/WX    TMP DP  RH WIND       PRES   REMARKS
MILWAUKEE      CLOUDY    58  54  86 E3        30.08R FOG
KENOSHA*       CLOUDY    58  53  84 CALM      30.09R
RACINE*        CLOUDY    56  52  86 NE3       30.10R
BURLINGTON     CLOUDY    57  54  88 CALM      30.09R
WAUKESHA       CLOUDY    57  54  88 CALM      30.09R
WEST BEND      CLOUDY    57  55  94 NW3       30.08R
$$

INZ001>003-010>013-019-020-221800-
NORTHWEST INDIANA

CITY           SKY/WX    TMP DP  RH WIND       PRES   REMARKS
GARY*          CLOUDY    55  52  88 VRB5      30.09R FOG
MICHIGAN CITY* NOT AVBL
RENSSELAER*    NOT AVBL
$$

LMZ740>746-221800-
SOUTHERN LAKE MICHIGAN

STATION/POSITION TIME  SKY/WX   TEMP WIND        PRES    VSBY
                                AIR  DIR/SP/G
                 (UTC)          (F)  (DEG/KT/KT) (MB)    (MI)
HARRISON CRIB    1610            48   10/  9/ 10   N/A
BURNHAM HARBOR   1700            52   20/  5/  9   N/A
CALUMET HARBOR   1642            51   20/  6/  7 1018.2R
BURNS HARBOR     1640            49   CALM  /  1 1019.3R
MICHIGAN CITY    1640            49  280/  7/  8   N/A
$$

ABBREVIATIONS USED IN REMARKS
   TC - TEMPERATURE IN CELSIUS
  WCI - WIND CHILL INDEX
   HX - HEAT INDEX
  VSB - VISIBILITY
$$




USA.gov is the U.S. government's official web portal to all federal, state and local government web resources and services.